Location: Riverside
(39.1734°N, 77.8561°W)
Time: 10:04:12
(UTC+00:00)

Hubble Space Telescope - Pass Details

Date: 22 November 2019
Orbit: 536 x 540 km, 28.5° (Epoch: 14 December)

Event Time Altitude Azimuth Distance (km) Brightness Sun altitude
Rises 00:05:08 0° 241° (WSW) 2,669 5.4 -25.4°
Reaches altitude 10° 00:07:55 10° 223° (SW) 1,779 4.0 -25.9°
Enters shadow 00:10:04 18° 192° (SSW) 1,366 3.0 -26.3°
